Regional Weather Roundup
Issued by NWS Green Bay, WI

Home | Current Version | Previous Version | Graphics & Text | Print | Product List | Glossary Off
Versions: 1 2 3 4 5 6 7 8 9 10 11 12 13 14 15 16 17 18 19 20 21 22 23 24 25 26 27 28 29 30 31 32 33 34 35 36 37 38 39 40 41 42 43 44 45 46 47 48 49 50

000
ASUS43 KGRB 181811
RWRGRB

NORTH-CENTRAL AND NORTHEAST WISCONSIN REGIONAL WEATHER ROUNDUP
NATIONAL WEATHER SERVICE GREEN BAY WI
1200 PM CST SUN FEB 18 2018

WIZ005-009-010>012-018-019-181900-
NORTH CENTRAL WISCONSIN

CITY           SKY/WX    TMP DP  RH WIND       PRES   REMARKS
IRONWOOD       CLOUDY    21   9  59 SE13G23   29.86F WCI   9
MANITOWISH WTR CLOUDY    20   8  57 SE13G21   29.88F WCI   8
ARBOR VITAE    CLOUDY    23   9  55 SE14G20   29.90F
EAGLE RIVER    FAIR      22   6  51 S8G16     29.94F
LAND O LAKES   CLOUDY    21  10  60 SE7       29.95F
RHINELANDER    CLOUDY    23   9  55 SE14      29.94F
PHILLIPS       CLOUDY    25  12  56 SE18      29.86F
ANTIGO         FAIR      23  14  68 S16       30.00F WCI   9
TOMAHAWK       CLOUDY    25  11  55 SE7       29.93F
MERRILL        CLOUDY    27  13  57 SE13G21   29.97F
$$

WIZ013-073-181900-
NORTHEAST WISCONSIN

CITY           SKY/WX    TMP DP  RH WIND       PRES   REMARKS
IRON MOUNTAIN  CLOUDY    21  13  71 SE9       30.04F
MARINETTE      PTSUNNY   28  18  66 S8        30.14F
OCONTO         PTSUNNY   27  16  62 SE9       30.12F
$$

WIZ017-030-035>037-045-181900-
CENTRAL WISCONSIN

CITY           SKY/WX    TMP DP  RH WIND       PRES   REMARKS
MEDFORD        FAIR      25  16  67 SE16G25   29.88F
WAUSAU         CLOUDY    27  17  66 SE15G26   29.97F
MOSINEE        CLOUDY    28  19  69 S18G24    30.00F
MARSHFIELD     CLOUDY    30  21  69 S20G29    29.93F
WISC RAPIDS    FAIR      34  19  54 S13G22    30.00F
STEVENS POINT  FAIR      29  18  63 SE12G21   30.02F
WAUPACA        FAIR      36  21  56 S15G24    30.07F
SHAWANO        FAIR      32  19  58 SE9       30.08F
CLINTONVILLE   FAIR      30  20  65 S10       30.08F
WAUTOMA        FAIR      35  20  54 S16G26    30.05F
$$

WIZ038-039-048-051-181900-
FOX VALLEY

CITY           SKY/WX    TMP DP  RH WIND       PRES   REMARKS
NWS GREEN BAY  FAIR      31  19  61 S13       30.12F
APPLETON       PTSUNNY   30  18  59 S15       30.09F
OSHKOSH        FAIR      36  24  62 S24G30    30.10F
FOND DU LAC    FAIR      35  20  54 S22G31    30.10F
$$

WIZ022-050-052-181900-
EAST CENTRAL WISCONSIN

CITY           SKY/WX    TMP DP  RH WIND       PRES   REMARKS
EPHRAIM        MOCLDY    27  20  75 S8        30.12F
WASHINGTON ISL CLOUDY    26  18  72 SE9       30.12F
STURGEON BAY   FAIR      28  19  69 S14       30.14F
MANITOWOC      FAIR      32  26  78 S18       30.15F
SHEBOYGAN      FAIR      33  26  75 S21G26    30.15F
$$

LMZ563-521-522-541>543-181900-
LAKESHORE

STATION/POSITION TIME  TEMP    WIND        PRES    VSBY  WAVE
                       AIR SEA DIR/SP/G                  HT/PER
                 (UTC) (F)     (DEG/KT/KT) (MB)    (MI)  (FT/S)
SHEBOYGAN LKSHOR 1800   31     180/ 23/ 25 1021.6F
KEWAUNEE LKSHORE 1748   30     170/ 16/ 18 1020.4F
NORTHPORT PIER   1740   27                 1020.7F
SISTER BAY LKSHO 1720   27     120/  5/  7   N/A
MENOMINEE LKSHOR 1748   22     140/  6/  7 1020.2F
$$




USA.gov is the U.S. government's official web portal to all federal, state and local government web resources and services.